CW5316 Weather Reports


Display with metric or nautical units.
time (UTC)temp
F
wind
direction
speed
MPH
gust
MPH
rain 1hr
in
rain 24hr
in
rain mn
in
humidity
%
barometer
mb
20260905120523 49 0 0.0 1.0 0.00 0.01 0.00 90 1017.3
20260905120045 49 0 0.0 1.0 0.00 0.01 0.00 91 1017.4
20260905115525 49 0 0.0 1.0 0.00 0.01 0.00 91 1017.4
20260905115023 49 0 0.0 0.0 0.00 0.01 0.00 91 1017.4
20260905114546 49 0 0.0 0.0 0.00 0.01 0.00 91 1017.4
20260905114023 49 0 0.0 1.0 0.00 0.01 0.00 90 1017.4
20260905113524 49 0 0.0 2.0 0.00 0.01 0.00 90 1017.5
20260905113053 49 0 0.0 2.0 0.00 0.01 0.00 91 1017.4
20260905112525 49 0 0.0 2.0 0.00 0.01 0.00 91 1017.4
20260905112022 49 0 0.0 0.0 0.00 0.01 0.00 91 1017.4
20260905111552 49 0 0.0 0.0 0.00 0.01 0.00 91 1017.4
20260905111025 49 0 0.0 1.0 0.00 0.01 0.00 91 1017.3
20260905110522 49 0 0.0 1.0 0.00 0.01 0.00 91 1017.4
20260905110048 49 0 0.0 1.0 0.00 0.01 0.00 91 1017.4
20260905105522 49 0 0.0 1.0 0.00 0.01 0.00 91 1017.4
20260905105024 49 0 0.0 1.0 0.00 0.01 0.00 91 1017.4
20260905104601 49 0 0.0 1.0 0.00 0.01 0.00 91 1017.4
20260905104023 49 0 0.0 2.0 0.00 0.01 0.00 90 1017.4
20260905103524 50 0 0.0 2.0 0.00 0.01 0.00 90 1017.3
20260905103039 50 0 0.0 2.0 0.00 0.01 0.00 90 1017.3
20260905102524 49 200 0.0 2.0 0.00 0.01 0.00 90 1017.3
20260905102024 49 0 0.0 3.0 0.00 0.01 0.00 90 1017.2
20260905101547 49 0 0.0 3.0 0.00 0.01 0.00 91 1017.3
20260905101022 49 0 0.0 3.0 0.00 0.01 0.00 91 1017.2
20260905100523 49 0 0.0 3.0 0.00 0.01 0.00 91 1017.2
20260905100046 49 0 0.0 3.0 0.00 0.01 0.00 91 1017.1
20260905095522 49 0 0.0 2.0 0.00 0.01 0.00 91 1017.2
20260905095028 49 0 0.0 1.0 0.00 0.01 0.00 91 1017.2
20260905094544 49 0 0.0 3.0 0.00 0.01 0.00 91 1017.2
20260905094027 49 0 0.0 3.0 0.00 0.01 0.00 91 1017.2
20260905093523 49 0 0.0 3.0 0.00 0.01 0.00 91 1017.1
20260905093052 49 0 0.0 3.0 0.00 0.01 0.00 92 1017.1
20260905092522 49 0 0.0 0.0 0.00 0.01 0.00 91 1017.1
20260905092027 49 0 0.0 1.0 0.00 0.01 0.00 92 1017.2
20260905091545 49 0 0.0 1.0 0.00 0.01 0.00 91 1017.1
20260905091022 49 0 0.0 1.0 0.00 0.01 0.00 91 1017.0
20260905090524 50 0 0.0 1.0 0.00 0.01 0.00 91 1017.1
20260905090112 50 0 0.0 2.0 0.00 0.01 0.00 91 1017.0
20260905085524 50 0 0.0 3.0 0.00 0.01 0.00 91 1017.1
20260905085024 50 0 0.0 3.0 0.00 0.01 0.00 91 1017.0
20260905084544 50 0 0.0 3.0 0.00 0.01 0.00 91 1017.0
20260905084022 50 0 0.0 1.0 0.00 0.01 0.00 91 1017.0
20260905083525 50 0 0.0 2.0 0.00 0.01 0.00 92 1017.0
20260905083053 50 0 0.0 2.0 0.00 0.01 0.00 91 1016.8
20260905082528 50 0 0.0 1.0 0.00 0.01 0.00 92 1016.9
20260905082024 50 0 0.0 0.0 0.00 0.01 0.00 91 1016.9
20260905081546 50 0 0.0 2.0 0.00 0.01 0.00 91 1016.9
20260905081024 51 0 0.0 3.0 0.00 0.01 0.00 90 1016.9
20260905080523 51 0 0.0 3.0 0.00 0.01 0.00 90 1016.9
20260905080047 51 0 0.0 2.0 0.00 0.01 0.00 90 1016.8
20260905075523 51 0 0.0 2.0 0.00 0.01 0.00 90 1016.9
20260905075023 51 0 0.0 2.0 0.00 0.01 0.00 90 1016.9
20260905074547 51 0 0.0 1.0 0.00 0.01 0.00 90 1016.9
20260905074023 51 0 0.0 1.0 0.00 0.01 0.00 91 1016.8
20260905073528 51 0 0.0 2.0 0.00 0.01 0.00 91 1016.8
20260905073052 51 0 0.0 2.0 0.00 0.01 0.00 90 1016.8
20260905072525 51 0 0.0 1.0 0.00 0.01 0.00 90 1017.0
20260905072026 51 0 0.0 1.0 0.00 0.01 0.00 90 1016.9
20260905071547 51 0 0.0 4.0 0.00 0.01 0.00 90 1016.8
20260905071024 51 0 0.0 4.0 0.00 0.01 0.00 89 1016.7
20260905070523 51 0 0.0 4.0 0.00 0.01 0.00 90 1016.7
20260905070049 51 0 0.0 1.0 0.00 0.01 0.00 89 1016.6
20260905065523 51 0 0.0 2.0 0.00 0.01 0.01 89 1016.6
20260905065024 51 0 0.0 2.0 0.00 0.01 0.01 89 1016.6
20260905064546 51 192 0.0 2.0 0.00 0.01 0.01 89 1016.5
20260905064025 52 0 0.0 4.0 0.00 0.01 0.01 89 1016.5
20260905063524 52 0 0.0 4.0 0.00 0.01 0.01 89 1016.5
20260905063043 52 0 0.0 4.0 0.00 0.01 0.01 88 1016.5
20260905062524 51 0 1.0 4.0 0.00 0.01 0.01 90 1016.6
20260905062022 51 0 0.0 2.0 0.00 0.01 0.01 91 1016.6
20260905061554 51 0 0.0 1.0 0.00 0.01 0.01 92 1016.5
20260905061023 51 0 0.0 0.0 0.00 0.01 0.01 92 1016.5
20260905060524 51 0 0.0 0.0 0.00 0.01 0.01 92 1016.5
20260905060055 51 0 0.0 1.0 0.00 0.01 0.01 91 1016.6
20260905055527 51 0 0.0 2.0 0.00 0.03 0.01 91 1016.6
20260905055026 51 0 0.0 2.0 0.00 0.03 0.01 91 1016.5
20260905054545 51 0 0.0 2.0 0.00 0.03 0.01 91 1016.6
20260905054022 51 0 0.0 2.0 0.00 0.03 0.01 92 1016.6
20260905053524 51 0 0.0 0.0 0.00 0.03 0.01 92 1016.6
20260905053046 51 0 0.0 0.0 0.00 0.03 0.01 92 1016.5
20260905052523 51 0 0.0 0.0 0.00 0.03 0.01 93 1016.5
20260905052024 51 0 0.0 0.0 0.00 0.03 0.01 93 1016.6
20260905051540 51 0 0.0 0.0 0.00 0.03 0.01 93 1016.6
20260905051023 51 0 0.0 0.0 0.00 0.03 0.01 92 1016.6
20260905050524 51 0 0.0 0.0 0.00 0.03 0.01 93 1016.7
20260905050051 51 0 0.0 1.0 0.00 0.03 0.01 93 1016.7
20260905045527 51 0 0.0 3.0 0.00 0.07 0.01 93 1016.8
20260905045026 51 0 0.0 3.0 0.00 0.07 0.01 93 1016.8
20260905044549 51 281 0.0 0.0 0.00 0.07 0.01 93 1016.7
20260905044022 51 0 0.0 0.0 0.00 0.07 0.01 93 1016.8
20260905043522 51 0 0.0 0.0 0.00 0.07 0.01 93 1016.8
20260905043045 51 0 0.0 0.0 0.00 0.07 0.01 92 1016.8
20260905042522 51 0 0.0 0.0 0.00 0.07 0.01 92 1016.8
20260905042024 51 0 0.0 0.0 0.00 0.07 0.01 92 1016.8
20260905041550 51 0 0.0 0.0 0.00 0.07 0.01 92 1016.7
20260905041026 51 0 0.0 0.0 0.00 0.07 0.01 92 1016.7
20260905040524 51 0 0.0 0.0 0.00 0.07 0.01 92 1016.7
20260905040046 52 0 0.0 0.0 0.00 0.07 0.01 92 1016.7
20260905035525 52 0 0.0 0.0 0.00 0.07 0.01 92 1016.7
20260905035023 52 0 0.0 0.0 0.00 0.07 0.01 92 1016.6
20260905034549 52 0 0.0 0.0 0.00 0.07 0.01 92 1016.6
20260905034023 52 0 0.0 0.0 0.00 0.07 0.01 92 1016.5
20260905033524 52 0 0.0 0.0 0.00 0.07 0.01 92 1016.4
20260905033051 52 0 0.0 0.0 0.00 0.07 0.01 92 1016.4
20260905032522 52 0 0.0 0.0 0.00 0.07 0.01 92 1016.3
20260905032022 52 0 0.0 0.0 0.00 0.07 0.01 91 1016.2
20260905031546 52 0 0.0 0.0 0.00 0.07 0.01 91 1016.2
20260905031024 53 0 0.0 0.0 0.00 0.07 0.01 91 1016.1
20260905030525 53 0 0.0 0.0 0.00 0.07 0.01 90 1016.0
20260905030046 53 0 0.0 0.0 0.00 0.07 0.01 90 1016.0
20260905025524 53 0 0.0 0.0 0.00 0.07 0.01 91 1015.9
20260905025023 53 0 0.0 0.0 0.00 0.07 0.01 91 1016.0
20260905024551 53 0 0.0 0.0 0.00 0.07 0.01 90 1015.9
20260905024024 53 0 0.0 0.0 0.00 0.07 0.01 90 1015.9
20260905023524 54 0 0.0 0.0 0.00 0.07 0.01 90 1015.8
20260905023050 54 0 0.0 0.0 0.00 0.07 0.01 90 1015.7
20260905022523 54 0 0.0 0.0 0.00 0.07 0.01 89 1015.7
20260905022024 54 0 0.0 0.0 0.00 0.07 0.01 89 1015.8
20260905021547 54 0 0.0 0.0 0.00 0.07 0.01 88 1015.7
20260905021025 54 0 0.0 0.0 0.00 0.07 0.01 87 1015.8
20260905020526 54 0 0.0 0.0 0.00 0.07 0.01 87 1015.8
20260905020047 54 0 0.0 0.0 0.00 0.07 0.01 86 1015.7
20260905015528 54 0 0.0 3.0 0.00 0.08 0.01 87 1015.9
20260905015024 54 0 0.0 3.0 0.00 0.08 0.01 89 1015.8
20260905014545 54 0 0.0 3.0 0.00 0.08 0.01 89 1015.9
20260905014024 54 0 0.0 3.0 0.00 0.08 0.01 90 1015.9
20260905013528 54 0 0.0 3.0 0.00 0.08 0.01 90 1015.8
20260905013108 54 0 0.0 1.0 0.00 0.08 0.01 90 1015.9
20260905012535 54 0 0.0 0.0 0.00 0.08 0.01 88 1015.7
20260905012026 55 0 0.0 3.0 0.00 0.08 0.01 88 1015.8
20260905011549 55 0 0.0 3.0 0.00 0.08 0.01 89 1015.7
20260905011029 55 248 0.0 3.0 0.00 0.08 0.01 90 1015.7
20260905010525 54 0 0.0 0.0 0.00 0.08 0.01 89 1015.7
20260905010046 54 0 0.0 0.0 0.00 0.08 0.01 90 1015.8
20260905005525 55 0 0.0 1.0 0.01 0.12 0.01 88 1015.8
20260905005025 55 0 0.0 1.0 0.01 0.12 0.01 88 1015.8
20260905004606 55 0 0.0 2.0 0.01 0.12 0.01 88 1015.7
20260905004024 55 0 0.0 3.0 0.01 0.12 0.01 88 1015.7
20260905003528 55 0 0.0 3.0 0.01 0.12 0.01 89 1015.5
20260905003052 55 271 0.0 5.0 0.01 0.12 0.01 89 1015.4
20260905002523 55 0 0.0 5.0 0.01 0.12 0.01 87 1015.4
20260905002031 55 0 0.0 5.0 0.01 0.12 0.01 85 1015.4
20260905001556 55 0 0.0 1.0 0.01 0.12 0.01 87 1015.5
20260905001024 56 0 0.0 1.0 0.01 0.12 0.01 87 1015.5
20260905000523 56 0 0.0 1.0 0.01 0.12 0.01 87 1015.5
20260905000052 56 0 0.0 1.0 0.00 0.11 0.00 87 1015.4
20260904235523 56 0 0.0 3.0 0.00 0.18 0.00 85 1015.3
20260904235024 56 0 0.0 6.0 0.00 0.18 0.00 83 1015.2
20260904234543 57 0 1.0 6.0 0.00 0.18 0.00 82 1015.2
20260904234024 57 123 1.0 11.0 0.00 0.18 0.00 80 1015.3
20260904233523 57 119 3.0 11.0 0.00 0.18 0.00 80 1015.3
20260904233046 57 142 4.0 11.0 0.00 0.18 0.00 79 1015.1
20260904232525 58 144 4.0 9.0 0.00 0.18 0.00 79 1015.2
20260904232024 58 113 2.0 11.0 0.00 0.18 0.00 78 1015.2
20260904231546 58 150 3.0 11.0 0.00 0.18 0.00 78 1015.0
20260904231024 59 127 4.0 12.0 0.00 0.18 0.00 81 1015.1
20260904230525 59 120 2.0 12.0 0.00 0.18 0.00 85 1015.0
20260904230047 59 0 4.0 12.0 0.00 0.18 0.00 84 1014.9
20260904225525 59 0 3.0 11.0 0.00 0.18 0.00 84 1014.7
20260904225024 59 221 3.0 7.0 0.00 0.18 0.00 82 1014.6
20260904224544 60 121 2.0 7.0 0.00 0.18 0.00 80 1014.5
20260904224025 60 113 1.0 6.0 0.00 0.18 0.00 80 1014.3
20260904223523 61 105 1.0 6.0 0.00 0.18 0.00 80 1014.2
20260904223051 61 109 1.0 6.0 0.00 0.18 0.00 79 1014.0
20260904222527 61 106 2.0 6.0 0.00 0.18 0.00 78 1013.8
20260904222026 62 148 1.0 6.0 0.00 0.18 0.00 75 1013.8
20260904221551 64 0 0.0 3.0 0.00 0.18 0.00 72 1013.7
20260904221024 64 0 1.0 3.0 0.00 0.18 0.00 68 1013.6
20260904220525 64 0 0.0 3.0 0.00 0.18 0.00 71 1013.7
20260904220048 63 121 0.0 4.0 0.00 0.18 0.00 71 1013.8
20260904215523 62 103 1.0 4.0 0.00 0.18 0.00 74 1013.8
20260904215024 62 148 0.0 4.0 0.00 0.18 0.00 75 1013.7
20260904214552 62 123 0.0 3.0 0.00 0.18 0.00 75 1013.6
20260904214024 62 225 0.0 3.0 0.00 0.18 0.00 73 1013.6
20260904213527 63 0 1.0 3.0 0.00 0.18 0.00 70 1013.5
20260904213051 63 117 0.0 3.0 0.00 0.18 0.00 72 1013.6
20260904212525 63 0 0.0 4.0 0.00 0.18 0.00 74 1013.5
20260904212024 63 0 0.0 4.0 0.00 0.18 0.00 72 1013.6
20260904211550 61 0 1.0 4.0 0.00 0.18 0.00 75 1013.7
20260904211026 60 0 0.0 2.0 0.00 0.18 0.00 77 1013.6
20260904210523 60 113 0.0 2.0 0.00 0.18 0.00 79 1013.6
20260904210041 60 72 0.0 2.0 0.00 0.18 0.00 78 1013.7
20260904205523 60 0 0.0 1.0 0.00 0.18 0.00 80 1013.7
20260904205022 60 0 0.0 0.0 0.00 0.18 0.00 79 1013.8
20260904204551 60 0 0.0 0.0 0.00 0.18 0.00 81 1013.9
20260904204026 59 0 0.0 0.0 0.00 0.18 0.00 80 1013.9
20260904203525 59 0 0.0 0.0 0.00 0.18 0.00 80 1013.9
20260904203047 60 0 0.0 0.0 0.00 0.18 0.00 79 1013.9
20260904202527 60 0 0.0 1.0 0.00 0.18 0.00 78 1013.9
20260904202029 60 0 0.0 1.0 0.00 0.18 0.00 78 1013.9
20260904201547 60 0 0.0 1.0 0.00 0.18 0.00 77 1013.9
20260904201023 60 0 0.0 1.0 0.00 0.18 0.00 78 1013.8
20260904200525 60 0 0.0 1.0 0.00 0.18 0.00 77 1013.9
20260904200043 60 0 0.0 2.0 0.00 0.18 0.00 78 1013.8
20260904195524 60 0 0.0 6.0 0.00 0.18 0.00 79 1013.7
20260904195022 60 0 0.0 6.0 0.00 0.18 0.00 77 1013.8
20260904194605 61 115 0.0 2.0 0.00 0.18 0.00 78 1013.7
20260904194026 60 135 0.0 3.0 0.00 0.18 0.00 81 1013.7
20260904193525 60 0 0.0 3.0 0.00 0.18 0.00 79 1013.7
20260904193046 60 0 0.0 2.0 0.00 0.18 0.00 81 1013.7
20260904192524 60 0 0.0 1.0 0.00 0.18 0.00 81 1013.7
20260904192028 60 0 0.0 7.0 0.00 0.18 0.00 80 1013.6
20260904191545 60 0 1.0 7.0 0.00 0.18 0.00 80 1013.6
20260904191024 61 0 1.0 4.0 0.00 0.18 0.00 79 1013.6
20260904190526 60 0 0.0 3.0 0.00 0.18 0.00 78 1013.5
20260904190050 60 0 0.0 4.0 0.00 0.18 0.00 79 1013.5
20260904185526 59 116 1.0 4.0 0.00 0.18 0.00 79 1013.6
20260904185025 59 0 1.0 4.0 0.00 0.18 0.00 79 1013.6
20260904184551 59 80 1.0 4.0 0.00 0.18 0.00 77 1013.6
20260904184025 59 0 0.0 3.0 0.00 0.18 0.00 78 1013.6
20260904183526 59 279 0.0 5.0 0.00 0.18 0.00 81 1013.6
20260904183045 58 0 0.0 5.0 0.00 0.18 0.00 79 1013.6
20260904182523 58 0 0.0 5.0 0.00 0.18 0.00 81 1013.6
20260904182027 58 92 0.0 4.0 0.00 0.18 0.00 81 1013.7
20260904181555 57 0 0.0 4.0 0.00 0.18 0.00 81 1013.7
20260904181025 57 61 0.0 3.0 0.00 0.18 0.00 81 1013.6
20260904180528 57 0 0.0 4.0 0.00 0.18 0.00 82 1013.6
20260904180052 56 0 1.0 4.0 0.00 0.18 0.00 81 1013.6
20260904175525 56 87 1.0 3.0 0.00 0.18 0.00 81 1013.7
20260904175025 56 0 0.0 3.0 0.00 0.18 0.00 82 1013.7
20260904174545 57 0 0.0 3.0 0.00 0.18 0.00 85 1013.7
20260904174024 56 0 0.0 3.0 0.00 0.18 0.00 84 1013.7
20260904173523 56 0 0.0 2.0 0.00 0.18 0.00 87 1013.7
20260904173043 56 0 0.0 3.0 0.00 0.18 0.00 85 1013.6
20260904172523 55 0 0.0 3.0 0.00 0.18 0.00 87 1013.6
20260904172027 55 93 0.0 4.0 0.00 0.18 0.00 88 1013.7
20260904171613 55 0 0.0 4.0 0.00 0.18 0.00 90 1013.6
20260904171026 55 0 0.0 2.0 0.00 0.18 0.00 91 1013.6
20260904170525 54 96 0.0 3.0 0.00 0.18 0.00 90 1013.6
20260904170046 54 0 0.0 3.0 0.00 0.18 0.00 89 1013.7
20260904165525 54 0 0.0 0.0 0.00 0.18 0.00 91 1013.7
20260904165026 53 0 0.0 0.0 0.00 0.18 0.00 90 1013.6
20260904164547 53 0 0.0 0.0 0.00 0.18 0.00 90 1013.7
20260904164023 53 0 0.0 0.0 0.00 0.18 0.00 91 1013.7
20260904163523 53 0 0.0 0.0 0.00 0.18 0.00 90 1013.7
20260904163053 53 0 0.0 0.0 0.00 0.18 0.00 91 1013.6
20260904162526 53 0 0.0 0.0 0.00 0.18 0.00 91 1013.6
20260904162025 53 0 0.0 0.0 0.00 0.18 0.00 94 1013.6
20260904161556 52 0 0.0 0.0 0.00 0.18 0.00 94 1013.7
20260904161024 52 0 0.0 1.0 0.00 0.18 0.00 94 1013.6
20260904160523 52 0 0.0 1.0 0.00 0.18 0.00 95 1013.6
20260904160047 52 0 0.0 0.0 0.00 0.18 0.00 94 1013.6
20260904155528 52 0 0.0 0.0 0.00 0.19 0.00 95 1013.5
20260904155028 51 0 0.0 0.0 0.00 0.19 0.00 94 1013.5
20260904154551 51 0 0.0 0.0 0.00 0.19 0.00 94 1013.5
20260904154027 50 0 0.0 0.0 0.00 0.19 0.00 96 1013.4
20260904153527 50 0 0.0 0.0 0.00 0.19 0.00 96 1013.5
20260904153052 50 0 0.0 0.0 0.00 0.19 0.00 96 1013.4
20260904152523 49 0 0.0 0.0 0.00 0.19 0.00 96 1013.4
20260904152022 49 0 0.0 0.0 0.00 0.19 0.00 96 1013.4
20260904151552 49 0 0.0 0.0 0.00 0.19 0.00 96 1013.4
20260904151027 49 0 0.0 0.0 0.00 0.19 0.00 96 1013.4
20260904150526 49 0 0.0 0.0 0.00 0.19 0.00 96 1013.3
20260904150046 49 0 0.0 1.0 0.00 0.19 0.00 96 1013.3
20260904145526 49 0 0.0 2.0 0.00 0.19 0.00 96 1013.3
20260904145029 49 0 0.0 2.0 0.00 0.19 0.00 96 1013.2
20260904144545 49 0 0.0 1.0 0.00 0.19 0.00 96 1013.1
20260904144027 49 0 0.0 1.0 0.00 0.19 0.00 97 1013.1
20260904143524 48 0 0.0 0.0 0.00 0.19 0.00 96 1013.0
20260904143057 48 0 0.0 0.0 0.00 0.19 0.00 96 1013.0
20260904142523 48 0 0.0 0.0 0.00 0.19 0.00 96 1012.8
20260904142023 48 0 0.0 0.0 0.00 0.19 0.00 97 1012.8
20260904141547 48 0 0.0 0.0 0.00 0.19 0.00 97 1012.8
20260904141023 48 0 0.0 0.0 0.00 0.19 0.00 97 1012.7
20260904140524 48 0 0.0 0.0 0.00 0.19 0.00 97 1012.6
20260904140046 48 0 0.0 1.0 0.00 0.19 0.00 96 1012.6
20260904135531 48 0 0.0 1.0 0.00 0.20 0.00 96 1012.5
20260904135029 48 0 0.0 1.0 0.00 0.20 0.00 96 1012.5
20260904134550 48 0 0.0 0.0 0.00 0.20 0.00 96 1012.5
20260904134025 48 0 0.0 0.0 0.00 0.20 0.00 97 1012.5
20260904133523 48 0 0.0 0.0 0.00 0.20 0.00 96 1012.4
20260904133058 48 0 0.0 0.0 0.00 0.20 0.00 96 1012.4
20260904132526 48 0 0.0 0.0 0.00 0.20 0.00 96 1012.3
20260904132023 48 0 0.0 1.0 0.00 0.20 0.00 96 1012.3
20260904131544 48 0 0.0 1.0 0.00 0.20 0.00 96 1012.3
20260904131024 48 0 0.0 0.0 0.00 0.20 0.00 96 1012.2
20260904130552 48 0 0.0 0.0 0.00 0.20 0.00 96 1012.1
20260904130045 48 0 0.0 0.0 0.00 0.20 0.00 96 1012.2
20260904125524 48 0 0.0 0.0 0.00 0.20 0.00 96 1012.1
20260904125026 48 0 0.0 0.0 0.00 0.20 0.00 96 1012.1
20260904124546 48 0 0.0 0.0 0.00 0.20 0.00 96 1012.1
20260904124028 48 0 0.0 0.0 0.00 0.20 0.00 96 1012.1
20260904123525 48 0 0.0 1.0 0.00 0.20 0.00 96 1012.0
20260904123047 48 0 0.0 1.0 0.00 0.20 0.00 96 1012.0
20260904122525 48 0 0.0 1.0 0.00 0.20 0.00 96 1012.1
20260904122022 48 0 0.0 0.0 0.00 0.20 0.00 96 1012.0
20260904121544 48 0 0.0 0.0 0.00 0.20 0.00 96 1012.0
20260904121025 48 0 0.0 0.0 0.00 0.20 0.00 96 1011.9